Weather in Kyshtovka

Russia / Novosibirsk Oblast     56°33′44″N   76°37′21″E
temp.,
°C
wind,
m/s
gust,
m/s
humid.,
%
clouds,
%
prec.,
mm/h
press.,
hPa
HPBL,
m
1 march, mon
mon101:00−18e51195100 0.2 1018347
04:00−18ene5995100 0.2 1015330
07:00−18ene5995100 0.4 1014331
10:00−18ene5995100 0.1 1013328
13:00−15ne5893100 0.3 1012347
16:00−13ne5793100 0.1 1012411
19:00−14ne4794100 0.2 1013383
22:00−15ne3795100 0.2 1013275
2 march, tue
tue201:00−19nne339888 0.2 101430
04:00−20ne229981 0.0 101520
07:00−21ne1110084 0.1 101520
10:00−20nw009885 0.0 101620
13:00−16ssw119087 0.1 1016263
16:00−14ssw2289100 0.0 1014373
19:00−17s239699 0.1 101420
22:00−20ssw229851 0.0 101520
3 march, wed
wed301:00−20s229950 0.0 101520
04:00−18s239783 0.1 101449
07:00−19s239881 0.1 101534
10:00−18s359781 0.0 1014125
13:00−14s469488 0.1 1014323
16:00−12s5893100 0.0 1013396
19:00−12s61193100 0.1 1013531
22:00−15s61295100 0.1 1012463
4 march, thu
thu401:00−13s61194100 0.7 1011486
04:00−10s61294100 0.4 1009466
07:00−8s71393100 1.0 1008535
10:00−5s71394100 0.4 1006599
13:00−2ssw81294100 1.1 1005863
16:00−1ssw81296100 0.8 1004872
19:00−1s81395100 1.5 1003789
22:00−2ssw81494100 0.5 1001703
5 march, fri
fri501:00−2ssw71396100 1.1 1000714
04:00−2ssw71396100 1.4 999592
07:00−3w71193100 2.6 1000610
10:00−7w61192100 0.1 1004462
13:00−7wsw7108790 0.1 1007612
16:00−7sw6108620 0.0 1009647
19:00−8ssw7148860 0.0 1009628
22:00−7ssw91694100 1.1 1007965